This is the latest recevied weather packets stored in our database for station/object N5ATR. If no packets are shown the sender has not sent any weather packets the latest 1 day(s).
| Time | Temp. | Humidity | Pressure | Rain* | Wind** | Luminosity | Snow |
|---|---|---|---|---|---|---|---|
| 1777992279 | 8.89° C | 62% | 1012.2 hPa | 0 mm | 1.79 m/s, 349° | 86 W/m² | - |
| 1777991976 | 9.44° C | 62% | 1012.2 hPa | 0 mm | 1.79 m/s, 332° | 77 W/m² | - |
| 1777991674 | 8.89° C | 62% | 1012.4 hPa | 0 mm | 3.13 m/s, 325° | 88 W/m² | - |
| 1777991370 | 8.89° C | 62% | 1012.3 hPa | 0 mm | 4.02 m/s, 259° | 72 W/m² | - |
| 1777991068 | 8.89° C | 61% | 1012.4 hPa | 0 mm | 2.24 m/s, 296° | 57 W/m² | - |
| 1777990765 | 9.44° C | 60% | 1012.5 hPa | 0 mm | 3.13 m/s, 289° | 60 W/m² | - |
| 1777990462 | 10° C | 58% | 1012.4 hPa | 0 mm | 3.58 m/s, 303° | 69 W/m² | - |
| 1777990159 | 10° C | 57% | 1012.2 hPa | 0 mm | 2.68 m/s, 323° | 66 W/m² | - |
| 1777989855 | 10.56° C | 51% | 1012.4 hPa | 0 mm | 2.24 m/s, 305° | 52 W/m² | - |
| 1777989552 | 10.56° C | 51% | 1012.2 hPa | 0 mm | 2.24 m/s, 290° | 60 W/m² | - |
| 1777989249 | 10.56° C | 52% | 1011.8 hPa | 0 mm | 2.68 m/s, 286° | 60 W/m² | - |
| 1777988945 | 10.56° C | 52% | 1012.1 hPa | 0 mm | 3.58 m/s, 258° | 49 W/m² | - |
| 1777988642 | 10.56° C | 53% | 1011.8 hPa | 0 mm | 2.24 m/s, 317° | 42 W/m² | - |
| 1777988338 | 10.56° C | 54% | 1012.2 hPa | 0 mm | 1.79 m/s, 292° | 27 W/m² | - |
| 1777988035 | 10.56° C | 53% | 1011.8 hPa | 0 mm | 2.68 m/s, 266° | 34 W/m² | - |
| 1777987731 | 10.56° C | 53% | 1012.1 hPa | 0 mm | 1.79 m/s, 243° | 38 W/m² | - |
| 1777987428 | 10° C | 52% | 1012.2 hPa | 0 mm | 2.68 m/s, 293° | 42 W/m² | - |
| 1777987126 | 10° C | 53% | 1012.1 hPa | 0 mm | 1.34 m/s, 284° | 35 W/m² | - |
| 1777986823 | 10° C | 53% | 1011.8 hPa | 0 mm | 1.79 m/s, 292° | 35 W/m² | - |
| 1777986521 | 10° C | 54% | 1011.8 hPa | 0 mm | 0.89 m/s, 291° | 29 W/m² | - |
| 1777986218 | 10° C | 53% | 1011.7 hPa | 0 mm | 1.79 m/s, 289° | 29 W/m² | - |
| 1777985915 | 10° C | 53% | 1011.6 hPa | 0 mm | 1.34 m/s, 315° | 25 W/m² | - |
| 1777985613 | 10° C | 53% | 1011.7 hPa | 0 mm | 1.79 m/s, 308° | 22 W/m² | - |
| 1777985309 | 9.44° C | 53% | 1011.7 hPa | 0 mm | 1.79 m/s, 290° | 18 W/m² | - |
| 1777985006 | 9.44° C | 52% | 1011.8 hPa | 0 mm | 1.34 m/s, 250° | 14 W/m² | - |
* Rain latest hour (hover to see other rain measurements)
** Current wind speed in m/s (hover to see current wind gust speed)